QPF
0.00 0.00 0.01 0.01 0.01 0.01 0.00 0.00 0.01 0.01 0.01 0.01 0.01 0.00 0.01 0.02 0.02 0.01 0.02 0.02 0.02 0.02 0.02 0.02 0.01 0.01 0.00 0.01 0.01 0.01 0.01 0.02 0.01 0.01 0.01 0.00 0.00 0.00 0.01 0.01 0.01 0.00 0.00 0.00
0.00 0.00 0.00 0.00 0.01 0.01 0.00 0.00 0.01 0.01 0.01 0.01 0.01 0.00 0.01 0.02 0.02 0.01 0.01 0.02 0.01 0.01 0.01 0.01 0.01 0.02 0.02 0.01 0.01 0.01 0.02 0.03 0.02 0.02 0.01 0.01 0.00 0.01 0.01 0.01 0.01 0.01 0.00 0.00
0.00 0.00 0.00 0.00 0.00 0.00 0.00 0.01 0.01 0.01 0.02 0.02 0.01 0.01 0.01 0.02 0.01 0.01 0.01 0.02 0.01 0.01 0.00 0.00 0.01 0.01 0.01 0.02 0.02 0.02 0.03 0.03 0.03 0.02 0.02 0.01 0.01 0.00 0.00 0.01 0.02 0.01 0.00 0.00
0.00 0.00 0.00 0.01 0.01 0.00 0.00 0.00 0.01 0.01 0.01 0.01 0.01 0.01 0.01 0.02 0.02 0.00 0.01 0.02 0.01 0.01 0.00 0.01 0.01 0.01 0.00 0.01 0.02 0.02 0.03 0.04 0.04 0.03 0.03 0.02 0.01 0.01 0.01 0.01 0.01 0.01 0.01 0.00
0.00 0.00 0.00 0.00 0.01 0.01 0.00 0.00 0.01 0.01 0.01 0.01 0.00 0.01 0.01 0.01 0.02 0.01 0.01 0.01 0.01 0.01 0.00 0.00 0.00 0.00 0.01 0.01 0.02 0.02 0.03 0.03 0.04 0.05 0.04 0.04 0.02 0.01 0.01 0.00 0.01 0.01 0.01 0.00
0.00 0.00 0.01 0.01 0.01 0.01 0.00 0.00 0.01 0.01 0.01 0.00 0.00 0.00 0.00 0.01 0.01 0.01 0.01 0.01 0.01 0.01 0.01 0.01 0.00 0.01 0.00 0.01 0.01 0.02 0.02 0.02 0.04 0.05 0.04 0.04 0.03 0.02 0.01 0.00 0.00 0.01 0.01 0.00
0.00 0.00 0.01 0.01 0.01 0.01 0.01 0.01 0.01 0.01 0.01 0.00 0.00 0.00 0.00 0.00 0.00 0.01 0.01 0.00 0.00 0.00 0.00 0.00 0.00 0.00 0.00 0.00 0.01 0.01 0.02 0.04 0.05 0.05 0.04 0.04 0.03 0.02 0.01 0.01 0.01 0.01 0.01 0.01
0.00 0.01 0.01 0.01 0.01 0.01 0.01 0.01 0.01 0.00 0.00 0.00 0.00 0.00 0.00 0.00 0.00 0.01 0.00 0.00 0.00 0.00 0.00 0.00 0.00 0.00 0.00 0.00 0.01 0.01 0.01 0.03 0.04 0.04 0.04 0.04 0.04 0.02 0.02 0.01 0.01 0.01 0.01 0.01
0.00 0.00 0.01 0.01 0.01 0.01 0.01 0.01 0.01 0.00 0.00 0.00 0.00 0.00 0.00 0.00 0.00 0.00 0.00 0.00 0.00 0.00 0.00 0.01 0.00 0.01 0.01 0.01 0.01 0.02 0.02 0.02 0.02 0.03 0.04 0.04 0.03 0.02 0.01 0.01 0.01 0.02 0.02 0.02
0.00 0.00 0.01 0.01 0.01 0.01 0.01 0.01 0.01 0.01 0.00 0.00 0.00 0.00 0.00 0.00 0.00 0.00 0.00 0.00 0.01 0.01 0.01 0.01 0.00 0.00 0.01 0.01 0.01 0.02 0.02 0.02 0.02 0.01 0.02 0.03 0.03 0.03 0.02 0.01 0.02 0.02 0.03 0.02
0.01 0.00 0.00 0.01 0.01 0.01 0.01 0.01 0.01 0.01 0.00 0.00 0.00 0.00 0.00 0.00 0.00 0.00 0.00 0.00 0.01 0.01 0.01 0.01 0.00 0.00 0.01 0.01 0.01 0.01 0.02 0.02 0.02 0.01 0.01 0.01 0.02 0.02 0.02 0.02 0.02 0.02 0.02 0.02
0.00 0.00 0.00 0.01 0.01 0.01 0.01 0.01 0.00 0.00 0.00 0.00 0.00 0.00 0.00 0.00 0.01 0.00 0.00 0.00 0.01 0.01 0.01 0.01 0.01 0.00 0.00 0.01 0.01 0.01 0.01 0.01 0.01 0.01 0.01 0.01 0.01 0.01 0.01 0.02 0.02 0.02 0.01 0.01
0.01 0.01 0.01 0.01 0.02 0.01 0.01 0.00 0.01 0.00 0.00 0.00 0.00 0.00 0.00 0.00 0.00 0.00 0.00 0.00 0.00 0.00 0.00 0.01 0.01 0.01 0.00 0.00 0.01 0.01 0.01 0.01 0.01 0.01 0.01 0.01 0.01 0.00 0.01 0.01 0.01 0.01 0.01 0.01
0.00 0.00 0.00 0.01 0.02 0.01 0.00 0.00 0.01 0.01 0.00 0.00 0.00 0.00 0.00 0.00 0.00 0.00 0.00 0.00 0.00 0.00 0.00 0.01 0.01 0.01 0.01 0.01 0.01 0.02 0.01 0.01 0.01 0.01 0.01 0.01 0.01 0.01 0.01 0.01 0.01 0.02 0.02 0.01
0.00 0.00 0.00 0.01 0.02 0.02 0.01 0.01 0.00 0.00 0.01 0.00 0.00 0.00 0.00 0.00 0.00 0.00 0.00 0.00 0.00 0.00 0.00 0.01 0.01 0.01 0.02 0.01 0.01 0.02 0.02 0.01 0.01 0.01 0.01 0.01 0.01 0.02 0.02 0.02 0.02 0.01 0.01 0.01
0.00 0.01 0.01 0.01 0.01 0.02 0.01 0.00 0.00 0.00 0.00 0.00 0.00 0.00 0.00 0.00 0.00 0.00 0.00 0.00 0.00 0.00 0.00 0.01 0.01 0.01 0.01 0.01 0.01 0.01 0.02 0.01 0.01 0.01 0.01 0.01 0.01 0.01 0.01 0.01 0.01 0.01 0.01 0.01
0.00 0.01 0.01 0.01 0.01 0.02 0.00 0.00 0.00 0.00 0.00 0.00 0.00 0.00 0.00 0.00 0.00 0.00 0.00 0.00 0.00 0.00 0.00 0.00 0.00 0.00 0.01 0.01 0.02 0.02 0.02 0.02 0.01 0.01 0.01 0.01 0.01 0.02 0.01 0.01 0.01 0.01 0.01 0.01
0.01 0.01 0.02 0.01 0.01 0.01 0.00 0.00 0.00 0.00 0.00 0.00 0.00 0.00 0.00 0.00 0.00 0.00 0.00 0.00 0.00 0.00 0.00 0.00 0.00 0.00 0.01 0.01 0.01 0.02 0.02 0.02 0.02 0.02 0.01 0.01 0.01 0.02 0.02 0.02 0.02 0.01 0.01 0.01
0.01 0.01 0.01 0.02 0.01 0.01 0.00 0.00 0.00 0.00 0.00 0.00 0.00 0.00 0.00 0.00 0.00 0.00 0.00 0.00 0.00 0.00 0.00 0.00 0.01 0.01 0.01 0.01 0.01 0.01 0.01 0.01 0.01 0.01 0.02 0.01 0.01 0.02 0.02 0.02 0.02 0.02 0.01 0.01
0.01 0.01 0.01 0.01 0.01 0.00 0.00 0.00 0.00 0.00 0.00 0.00 0.00 0.00 0.00 0.00 0.00 0.00 0.00 0.00 0.00 0.00 0.00 0.00 0.00 0.01 0.01 0.01 0.01 0.01 0.01 0.01 0.00 0.01 0.01 0.01 0.01 0.01 0.02 0.02 0.01 0.01 0.01 0.01
0.01 0.01 0.01 0.01 0.01 0.01 0.00 0.00 0.00 0.00 0.00 0.00 0.00 0.00 0.00 0.00 0.00 0.00 0.00 0.00 0.00 0.00 0.00 0.00 0.00 0.01 0.01 0.01 0.00 0.01 0.01 0.00 0.01 0.01 0.01 0.01 0.01 0.01 0.01 0.01 0.01 0.01 0.01 0.01
0.02 0.02 0.02 0.01 0.02 0.01 0.00 0.00 0.00 0.00 0.00 0.00 0.00 0.00 0.00 0.00 0.00 0.00 0.00 0.00 0.00 0.00 0.00 0.00 0.00 0.00 0.01 0.01 0.00 0.00 0.00 0.01 0.01 0.01 0.01 0.01 0.01 0.01 0.01 0.01 0.01 0.01 0.01 0.01
0.02 0.03 0.02 0.02 0.01 0.01 0.00 0.00 0.00 0.00 0.00 0.00 0.00 0.00 0.00 0.00 0.00 0.00 0.00 0.00 0.00 0.00 0.00 0.00 0.00 0.00 0.00 0.00 0.00 0.01 0.01 0.01 0.01 0.01 0.01 0.01 0.02 0.01 0.01 0.01 0.01 0.01 0.01 0.01
0.02 0.02 0.02 0.02 0.01 0.00 0.00 0.01 0.00 0.00 0.00 0.00 0.00 0.00 0.00 0.00 0.00 0.00 0.00 0.00 0.00 0.00 0.00 0.00 0.00 0.00 0.00 0.00 0.00 0.01 0.01 0.01 0.01 0.01 0.01 0.01 0.02 0.02 0.02 0.02 0.01 0.01 0.02 0.01
0.01 0.02 0.02 0.02 0.01 0.00 0.00 0.00 0.01 0.01 0.01 0.01 0.00 0.00 0.00 0.00 0.00 0.00 0.00 0.00 0.00 0.00 0.00 0.00 0.00 0.00 0.00 0.00 0.00 0.00 0.01 0.01 0.01 0.01 0.01 0.01 0.02 0.02 0.02 0.03 0.03 0.02 0.03 0.03
0.02 0.02 0.02 0.02 0.01 0.01 0.01 0.00 0.01 0.01 0.01 0.01 0.01 0.01 0.01 0.01 0.00 0.00 0.00 0.00 0.00 0.00 0.00 0.00 0.00 0.00 0.00 0.00 0.00 0.00 0.00 0.01 0.01 0.01 0.01 0.02 0.02 0.03 0.03 0.03 0.04 0.04 0.03 0.03
MSLP
1016.85 1017.89 1018.78 1019.48 1019.99 1020.31 1020.50 1020.59 1020.62 1020.62 1020.60 1020.58 1020.53 1020.46 1020.36 1020.22 1020.03 1019.80 1019.54 1019.26 1018.94 1018.62 1018.30 1018.00 1017.74 1017.54 1017.43 1017.42 1017.52 1017.72 1018.01 1018.34 1018.69 1019.02 1019.30 1019.50 1019.61 1019.65 1019.63 1019.57 1019.50 1019.44 1019.42 1019.44
1017.52 1018.38 1019.07 1019.58 1019.92 1020.16 1020.32 1020.46 1020.59 1020.71 1020.82 1020.87 1020.85 1020.74 1020.53 1020.24 1019.89 1019.51 1019.14 1018.78 1018.47 1018.19 1017.95 1017.76 1017.59 1017.47 1017.41 1017.42 1017.53 1017.72 1018.01 1018.36 1018.74 1019.12 1019.45 1019.71 1019.88 1019.94 1019.93 1019.86 1019.77 1019.68 1019.63 1019.62
1017.96 1018.60 1019.08 1019.40 1019.62 1019.81 1020.01 1020.26 1020.55 1020.85 1021.10 1021.25 1021.26 1021.09 1020.76 1020.30 1019.76 1019.21 1018.70 1018.27 1017.94 1017.71 1017.57 1017.48 1017.43 1017.41 1017.41 1017.46 1017.57 1017.75 1018.03 1018.37 1018.77 1019.18 1019.55 1019.85 1020.06 1020.15 1020.14 1020.07 1019.95 1019.84 1019.76 1019.74
1018.21 1018.64 1018.91 1019.08 1019.23 1019.42 1019.71 1020.12 1020.61 1021.10 1021.52 1021.78 1021.81 1021.57 1021.10 1020.45 1019.69 1018.94 1018.27 1017.75 1017.39 1017.20 1017.14 1017.17 1017.24 1017.32 1017.40 1017.49 1017.61 1017.79 1018.04 1018.38 1018.77 1019.18 1019.58 1019.90 1020.13 1020.24 1020.24 1020.16 1020.03 1019.89 1019.80 1019.76
1018.39 1018.61 1018.71 1018.77 1018.88 1019.12 1019.54 1020.13 1020.83 1021.53 1022.10 1022.45 1022.47 1022.16 1021.53 1020.66 1019.68 1018.72 1017.88 1017.24 1016.85 1016.68 1016.70 1016.83 1017.01 1017.19 1017.35 1017.48 1017.62 1017.79 1018.03 1018.34 1018.72 1019.12 1019.52 1019.85 1020.09 1020.21 1020.22 1020.13 1019.99 1019.85 1019.74 1019.69
1018.57 1018.62 1018.58 1018.57 1018.67 1018.99 1019.55 1020.33 1021.22 1022.09 1022.79 1023.19 1023.19 1022.78 1021.98 1020.90 1019.70 1018.53 1017.52 1016.77 1016.32 1016.16 1016.23 1016.45 1016.73 1017.00 1017.23 1017.41 1017.57 1017.74 1017.96 1018.25 1018.60 1018.99 1019.37 1019.70 1019.95 1020.07 1020.07 1019.99 1019.85 1019.70 1019.59 1019.55
1018.77 1018.69 1018.57 1018.52 1018.66 1019.07 1019.76 1020.68 1021.72 1022.72 1023.50 1023.91 1023.85 1023.32 1022.36 1021.09 1019.69 1018.33 1017.18 1016.33 1015.83 1015.66 1015.77 1016.05 1016.40 1016.75 1017.04 1017.26 1017.45 1017.62 1017.82 1018.09 1018.41 1018.77 1019.14 1019.46 1019.70 1019.82 1019.83 1019.76 1019.63 1019.49 1019.39 1019.36
1018.98 1018.83 1018.67 1018.62 1018.81 1019.30 1020.09 1021.12 1022.25 1023.30 1024.09 1024.46 1024.33 1023.68 1022.58 1021.15 1019.60 1018.11 1016.85 1015.92 1015.38 1015.21 1015.34 1015.65 1016.05 1016.45 1016.79 1017.05 1017.25 1017.42 1017.62 1017.86 1018.16 1018.50 1018.85 1019.15 1019.38 1019.50 1019.52 1019.45 1019.34 1019.22 1019.15 1019.14
1019.13 1018.95 1018.80 1018.80 1019.05 1019.60 1020.45 1021.53 1022.67 1023.70 1024.45 1024.75 1024.52 1023.77 1022.56 1021.04 1019.40 1017.85 1016.53 1015.58 1015.02 1014.84 1014.98 1015.31 1015.73 1016.15 1016.51 1016.79 1017.00 1017.18 1017.37 1017.60 1017.88 1018.19 1018.51 1018.79 1019.00 1019.12 1019.14 1019.09 1019.00 1018.91 1018.87 1018.89
1019.15 1019.00 1018.91 1018.97 1019.28 1019.88 1020.75 1021.81 1022.90 1023.85 1024.49 1024.69 1024.37 1023.54 1022.28 1020.74 1019.10 1017.56 1016.27 1015.33 1014.78 1014.61 1014.74 1015.06 1015.47 1015.89 1016.24 1016.52 1016.74 1016.92 1017.11 1017.33 1017.58 1017.87 1018.16 1018.42 1018.60 1018.71 1018.73 1018.68 1018.61 1018.56 1018.54 1018.60
1018.98 1018.92 1018.92 1019.07 1019.44 1020.07 1020.91 1021.89 1022.86 1023.68 1024.18 1024.26 1023.86 1023.00 1021.76 1020.27 1018.72 1017.28 1016.08 1015.21 1014.71 1014.55 1014.67 1014.97 1015.34 1015.72 1016.05 1016.31 1016.52 1016.69 1016.87 1017.08 1017.32 1017.58 1017.83 1018.05 1018.20 1018.28 1018.29 1018.25 1018.19 1018.15 1018.17 1018.25
1018.66 1018.72 1018.84 1019.09 1019.51 1020.13 1020.91 1021.77 1022.58 1023.22 1023.56 1023.52 1023.07 1022.22 1021.05 1019.70 1018.32 1017.04 1016.00 1015.25 1014.82 1014.69 1014.80 1015.05 1015.37 1015.69 1015.96 1016.19 1016.37 1016.53 1016.70 1016.89 1017.11 1017.33 1017.55 1017.72 1017.82 1017.86 1017.84 1017.78 1017.72 1017.70 1017.74 1017.85
1018.26 1018.46 1018.71 1019.05 1019.51 1020.10 1020.77 1021.47 1022.08 1022.52 1022.69 1022.55 1022.06 1021.26 1020.23 1019.08 1017.92 1016.88 1016.04 1015.45 1015.12 1015.03 1015.12 1015.32 1015.56 1015.80 1016.01 1016.19 1016.33 1016.48 1016.63 1016.81 1017.00 1017.18 1017.34 1017.45 1017.49 1017.47 1017.41 1017.31 1017.24 1017.21 1017.26 1017.39
1017.91 1018.25 1018.61 1019.02 1019.49 1020.01 1020.54 1021.04 1021.43 1021.66 1021.66 1021.41 1020.92 1020.21 1019.36 1018.44 1017.56 1016.79 1016.19 1015.78 1015.57 1015.52 1015.60 1015.74 1015.91 1016.07 1016.20 1016.32 1016.43 1016.56 1016.69 1016.85 1017.00 1017.14 1017.24 1017.28 1017.25 1017.15 1017.02 1016.88 1016.77 1016.72 1016.76 1016.89
1017.75 1018.19 1018.64 1019.07 1019.50 1019.90 1020.26 1020.53 1020.69 1020.69 1020.53 1020.20 1019.71 1019.12 1018.46 1017.81 1017.22 1016.74 1016.40 1016.19 1016.11 1016.12 1016.19 1016.29 1016.38 1016.46 1016.53 1016.60 1016.68 1016.78 1016.90 1017.03 1017.15 1017.24 1017.27 1017.23 1017.12 1016.94 1016.73 1016.52 1016.36 1016.28 1016.30 1016.42
1017.85 1018.36 1018.82 1019.22 1019.56 1019.80 1019.95 1019.98 1019.88 1019.67 1019.35 1018.95 1018.49 1018.01 1017.57 1017.18 1016.89 1016.71 1016.62 1016.62 1016.67 1016.75 1016.84 1016.90 1016.94 1016.96 1016.98 1017.01 1017.06 1017.15 1017.26 1017.37 1017.46 1017.49 1017.46 1017.34 1017.13 1016.87 1016.57 1016.30 1016.08 1015.95 1015.94 1016.03
1018.22 1018.72 1019.14 1019.46 1019.64 1019.69 1019.60 1019.37 1019.03 1018.61 1018.15 1017.69 1017.26 1016.92 1016.67 1016.55 1016.54 1016.63 1016.80 1017.00 1017.19 1017.36 1017.47 1017.53 1017.55 1017.54 1017.53 1017.53 1017.58 1017.66 1017.76 1017.85 1017.91 1017.90 1017.81 1017.61 1017.32 1016.97 1016.60 1016.26 1015.98 1015.81 1015.75 1015.81
1018.77 1019.21 1019.52 1019.69 1019.68 1019.51 1019.17 1018.69 1018.13 1017.52 1016.94 1016.44 1016.05 1015.83 1015.78 1015.89 1016.14 1016.49 1016.89 1017.28 1017.62 1017.89 1018.06 1018.14 1018.17 1018.16 1018.14 1018.16 1018.20 1018.29 1018.39 1018.48 1018.51 1018.47 1018.31 1018.06 1017.70 1017.29 1016.85 1016.45 1016.12 1015.91 1015.81 1015.82
1019.34 1019.65 1019.82 1019.80 1019.58 1019.18 1018.61 1017.92 1017.16 1016.41 1015.74 1015.22 1014.89 1014.78 1014.89 1015.22 1015.70 1016.28 1016.88 1017.45 1017.94 1018.32 1018.57 1018.71 1018.77 1018.79 1018.81 1018.84 1018.91 1019.01 1019.12 1019.20 1019.22 1019.15 1018.96 1018.66 1018.26 1017.81 1017.33 1016.89 1016.53 1016.28 1016.14 1016.12
1019.73 1019.89 1019.88 1019.67 1019.26 1018.66 1017.90 1017.03 1016.13 1015.29 1014.58 1014.06 1013.79 1013.80 1014.07 1014.57 1015.24 1016.01 1016.79 1017.53 1018.16 1018.65 1019.00 1019.22 1019.35 1019.43 1019.49 1019.56 1019.66 1019.78 1019.90 1019.98 1019.99 1019.91 1019.71 1019.39 1018.97 1018.50 1018.01 1017.56 1017.19 1016.92 1016.75 1016.69
1019.79 1019.79 1019.62 1019.24 1018.67 1017.92 1017.03 1016.06 1015.09 1014.21 1013.50 1013.02 1012.83 1012.94 1013.34 1013.98 1014.81 1015.73 1016.67 1017.54 1018.30 1018.92 1019.37 1019.68 1019.89 1020.04 1020.15 1020.27 1020.41 1020.55 1020.68 1020.77 1020.78 1020.70 1020.50 1020.19 1019.79 1019.33 1018.86 1018.43 1018.06 1017.79 1017.61 1017.52
1019.42 1019.29 1018.98 1018.49 1017.81 1016.98 1016.04 1015.04 1014.08 1013.23 1012.57 1012.16 1012.05 1012.26 1012.76 1013.52 1014.46 1015.49 1016.54 1017.53 1018.40 1019.12 1019.68 1020.09 1020.38 1020.60 1020.78 1020.95 1021.11 1021.28 1021.42 1021.52 1021.54 1021.47 1021.29 1021.01 1020.65 1020.23 1019.81 1019.42 1019.08 1018.82 1018.64 1018.53
1018.63 1018.40 1018.01 1017.45 1016.75 1015.92 1015.00 1014.06 1013.17 1012.41 1011.84 1011.52 1011.51 1011.80 1012.38 1013.21 1014.22 1015.34 1016.46 1017.53 1018.49 1019.30 1019.95 1020.45 1020.82 1021.11 1021.34 1021.55 1021.74 1021.92 1022.07 1022.18 1022.22 1022.17 1022.03 1021.80 1021.50 1021.15 1020.80 1020.46 1020.17 1019.94 1019.77 1019.64
1017.52 1017.22 1016.80 1016.25 1015.58 1014.82 1014.00 1013.18 1012.42 1011.79 1011.34 1011.14 1011.22 1011.58 1012.22 1013.09 1014.14 1015.29 1016.46 1017.58 1018.60 1019.47 1020.19 1020.77 1021.21 1021.55 1021.83 1022.07 1022.28 1022.47 1022.63 1022.74 1022.80 1022.79 1022.69 1022.53 1022.30 1022.04 1021.76 1021.49 1021.25 1021.06 1020.89 1020.75
1016.21 1015.89 1015.48 1014.98 1014.40 1013.77 1013.11 1012.46 1011.87 1011.40 1011.09 1011.01 1011.17 1011.59 1012.26 1013.15 1014.21 1015.36 1016.54 1017.68 1018.73 1019.66 1020.43 1021.06 1021.55 1021.94 1022.25 1022.50 1022.72 1022.91 1023.08 1023.20 1023.28 1023.31 1023.27 1023.18 1023.03 1022.85 1022.65 1022.45 1022.26 1022.09 1021.93 1021.77
1014.85 1014.53 1014.16 1013.75 1013.31 1012.84 1012.36 1011.90 1011.50 1011.20 1011.04 1011.07 1011.31 1011.78 1012.48 1013.37 1014.41 1015.55 1016.72 1017.86 1018.92 1019.87 1020.67 1021.33 1021.86 1022.28 1022.60 1022.87 1023.09 1023.28 1023.45 1023.58 1023.69 1023.76 1023.78 1023.75 1023.68 1023.58 1023.45 1023.31 1023.15 1023.00 1022.83 1022.64
Thickness
5716 5703 5694 5698 5702 5701 5696 5691 5688 5695 5707 5702 5696 5697 5701 5706 5705 5703 5703 5703 5705 5708 5713 5715 5717 5717 5717 5717 5717 5717 5717 5717 5717 5717 5716 5716 5716 5717 5719 5720 5721 5722 5722 5722
5699 5695 5706 5709 5707 5703 5697 5690 5689 5696 5706 5702 5695 5696 5702 5704 5705 5707 5705 5704 5705 5707 5709 5712 5714 5714 5714 5714 5715 5715 5716 5716 5716 5715 5715 5715 5714 5714 5715 5717 5718 5719 5719 5719
5695 5702 5713 5708 5701 5696 5694 5690 5690 5691 5699 5699 5695 5691 5698 5704 5707 5708 5709 5708 5708 5708 5708 5710 5712 5712 5712 5712 5713 5715 5714 5714 5714 5714 5713 5712 5712 5712 5712 5713 5714 5715 5716 5716
5699 5707 5708 5702 5698 5698 5688 5701 5699 5695 5686 5678 5686 5670 5691 5698 5700 5705 5707 5708 5708 5710 5711 5711 5712 5712 5712 5713 5714 5714 5713 5713 5712 5712 5712 5710 5708 5706 5707 5709 5710 5712 5713 5713
5696 5704 5703 5698 5702 5703 5697 5705 5699 5693 5684 5675 5679 5672 5683 5695 5695 5703 5709 5711 5712 5713 5712 5712 5713 5714 5714 5714 5713 5713 5712 5711 5710 5710 5710 5708 5706 5706 5705 5706 5707 5708 5709 5709
5700 5709 5709 5706 5710 5710 5704 5695 5688 5679 5672 5663 5674 5670 5677 5690 5700 5709 5714 5716 5716 5716 5715 5714 5715 5714 5713 5713 5713 5712 5710 5709 5708 5708 5707 5706 5705 5704 5703 5703 5704 5704 5704 5705
5690 5699 5708 5712 5701 5701 5696 5677 5659 5656 5651 5656 5676 5673 5683 5707 5713 5717 5719 5720 5720 5718 5716 5714 5713 5712 5711 5711 5711 5710 5709 5707 5707 5706 5705 5705 5704 5703 5702 5702 5701 5701 5701 5701
5675 5676 5698 5706 5701 5692 5689 5680 5659 5650 5648 5657 5673 5671 5694 5717 5722 5724 5724 5724 5722 5719 5717 5716 5715 5714 5712 5711 5710 5709 5707 5706 5705 5704 5704 5703 5703 5702 5701 5700 5700 5700 5699 5699
5673 5676 5700 5707 5709 5700 5684 5677 5680 5663 5660 5655 5663 5679 5701 5719 5720 5721 5722 5721 5720 5719 5718 5717 5716 5715 5713 5712 5710 5709 5707 5705 5704 5703 5702 5701 5701 5700 5699 5699 5699 5699 5699 5698
5685 5677 5691 5701 5704 5699 5695 5683 5668 5659 5650 5647 5661 5672 5684 5705 5712 5716 5717 5718 5719 5720 5719 5718 5716 5715 5714 5713 5711 5709 5707 5706 5704 5703 5701 5701 5700 5699 5698 5698 5697 5697 5697 5697
5687 5675 5679 5688 5687 5684 5683 5678 5671 5660 5658 5649 5649 5668 5703 5707 5713 5715 5717 5719 5720 5719 5719 5718 5717 5716 5714 5712 5710 5708 5706 5704 5702 5701 5700 5699 5698 5698 5697 5696 5695 5695 5695 5694
5681 5670 5664 5677 5692 5697 5690 5683 5672 5661 5656 5654 5652 5670 5712 5713 5715 5717 5717 5719 5720 5720 5720 5719 5717 5714 5712 5710 5708 5706 5705 5704 5702 5701 5699 5698 5697 5696 5695 5694 5694 5693 5693 5692
5678 5665 5655 5660 5671 5682 5683 5682 5678 5670 5658 5650 5651 5674 5710 5711 5714 5716 5716 5717 5717 5717 5717 5715 5714 5711 5710 5708 5707 5706 5705 5703 5702 5700 5697 5696 5694 5694 5693 5692 5692 5691 5690 5689
5681 5663 5658 5656 5664 5673 5675 5679 5677 5669 5656 5653 5662 5679 5698 5705 5708 5712 5714 5715 5714 5714 5714 5712 5710 5709 5709 5708 5706 5705 5704 5703 5701 5699 5696 5694 5693 5693 5692 5691 5690 5689 5688 5686
5675 5660 5664 5669 5677 5677 5678 5679 5677 5673 5671 5665 5675 5681 5696 5704 5708 5711 5712 5712 5712 5711 5710 5710 5709 5708 5707 5706 5705 5704 5702 5701 5700 5697 5695 5694 5693 5692 5691 5689 5688 5687 5686 5685
5664 5658 5660 5663 5672 5672 5672 5678 5678 5678 5679 5677 5681 5686 5704 5707 5708 5708 5709 5710 5709 5710 5710 5710 5709 5707 5706 5705 5704 5703 5701 5700 5698 5696 5694 5693 5692 5690 5689 5688 5686 5684 5683 5682
5653 5652 5647 5647 5661 5664 5660 5677 5680 5681 5685 5684 5681 5693 5702 5702 5705 5707 5709 5710 5711 5711 5711 5710 5709 5708 5707 5706 5705 5702 5701 5698 5696 5694 5693 5691 5690 5688 5687 5686 5683 5681 5680 5678
5649 5645 5638 5638 5647 5642 5670 5690 5691 5687 5688 5689 5693 5697 5701 5704 5708 5711 5712 5711 5711 5712 5712 5711 5711 5709 5708 5707 5705 5702 5699 5696 5694 5692 5691 5689 5688 5686 5684 5683 5681 5678 5677 5675
5651 5643 5632 5630 5634 5646 5670 5684 5685 5682 5682 5692 5692 5696 5699 5702 5703 5706 5713 5714 5714 5715 5714 5713 5712 5710 5707 5705 5703 5700 5696 5694 5691 5690 5689 5688 5686 5684 5682 5680 5678 5675 5673 5671
5644 5642 5631 5627 5631 5637 5665 5685 5690 5686 5675 5693 5694 5693 5694 5694 5686 5698 5711 5711 5712 5713 5712 5711 5710 5707 5704 5702 5700 5697 5693 5691 5690 5689 5688 5686 5684 5682 5680 5678 5675 5673 5671 5668
5631 5628 5626 5625 5629 5643 5667 5679 5683 5665 5673 5693 5694 5694 5692 5691 5695 5704 5708 5708 5709 5710 5710 5709 5706 5704 5703 5701 5698 5694 5692 5691 5691 5689 5686 5684 5682 5680 5678 5675 5672 5669 5667 5664
5626 5622 5620 5620 5625 5640 5668 5669 5667 5672 5686 5690 5692 5693 5693 5695 5698 5701 5703 5704 5705 5704 5705 5704 5702 5700 5699 5698 5696 5692 5690 5691 5689 5686 5683 5681 5679 5677 5675 5671 5668 5665 5662 5659
5623 5627 5626 5630 5639 5656 5663 5667 5674 5678 5680 5685 5688 5691 5692 5692 5694 5696 5697 5699 5700 5700 5700 5700 5698 5696 5694 5694 5693 5690 5690 5688 5685 5682 5679 5677 5675 5673 5670 5667 5663 5660 5657 5654
5620 5625 5624 5627 5641 5652 5659 5664 5670 5674 5677 5683 5686 5687 5689 5688 5690 5691 5692 5692 5694 5695 5694 5694 5693 5691 5689 5689 5689 5688 5686 5684 5681 5677 5674 5672 5669 5667 5665 5663 5659 5656 5653 5650
5619 5618 5619 5624 5638 5647 5656 5660 5664 5669 5674 5678 5681 5683 5684 5685 5685 5685 5686 5687 5688 5689 5689 5689 5688 5687 5686 5685 5684 5683 5681 5680 5676 5673 5670 5667 5664 5661 5659 5656 5654 5653 5652 5651
5614 5616 5617 5624 5636 5638 5646 5655 5659 5662 5666 5670 5673 5675 5678 5680 5680 5680 5680 5681 5682 5682 5683 5682 5682 5681 5681 5680 5679 5678 5677 5675 5671 5667 5664 5662 5658 5655 5652 5649 5646 5646 5646 5645